Torna al catalogo

STARLINK-31399

AttivoComunicazioniVLEO
NORAD 59416·PAYLOAD·🇺🇸 United States

Lanciato Apr 5, 2024 da Cape Canaveral Space Force Station

Loading…

Prossimi Passaggi (prossime 24 ore)

TLE

AggiornatoSource: CelesTrak SupGP

Epoca: Sep 14, 2026, 21:37 UTC

1 59416C 24064U   26257.90118056  .00055912  00000+0  20253-2 0  2575
2 59416  43.0002  67.4313 0001554 273.7575 141.3723 15.27547720    13

Traccia STARLINK-31399 in tempo reale con AllMySat

Download on the App Store